STARLINK-11468, 62221

Orbit data source: Space-Track

STARLINK-11468, 62221 is a payload satellite owned by SpaceX/Seattle (US) in LEO that was launched on Thu, 05 Dec 2024 UTC via an FALCON 9 launch vehicle from the Air Force Western Test Range (AFWTR). Payload-class satellites include a variety of spacecraft equipped with specific instruments for various scientific and technological missions. These include communications satellites like Starlink; space stations such as the ISS; scientific satellites like the Hubble; Earth observation satellites from companies like Planet Labs, Umbra, and HawkEye 360; GPS; miniature CubeSats for education and research; and military/defense satellites.

Loading next visibility...
Identifier
62221, 2024-231D
Orbit
LEO
Country
Flag of USUS
Related business
Manufacturer
SpaceX/Seattle
Mission
Operational Commercial Communications
Bus & Motor
STARLINK V2MD, Unknown motor
Mass
960 kg wet, ~910 kg dry
Launch date (UTC)
2024-12-05 (2 years ago)
Launch vehicle
FALCON 9
Launch site
Air Force Western Test Range (AFWTR)
Object type
Payload
Rocket body
Debris
Shape & HBR
Box + 2 Pan, 18.1 m
Radar Cross Section
36.964 m², Large (>1 m²)

Expand to show TLE details & history
Last TLE update: 17 hours ago

TLE from 17 hours ago
0 STARLINK-11468
1 62221U 24231D   26256.48971991  .00113488  00000-0  92753-3 0  9998
2 62221  53.1585 255.7704 0001626  79.3598 280.7603 15.69743519102906
Epoch: 2026-09-13T11:45Z
TLE epoch observation values (Epoch: 2026-09-13T11:45:11.800Z)
Latitude
-0.00001°
Longitude
86.9876°
Altitude
360.341 km
Speed
7.694 km/s
True Right ascension
17h 03m 04s
True Declination
0° 00' 00"
Sunlit
Object was in daylight at epoch
Visualization orbit readout
Latitude
Unknown
Longitude
Unknown
Altitude
Unknown
Speed
Unknown
Apparent Right ascension
Unknown
Apparent Declination
Unknown
Sunlit
N/A
Visualization observer readout
Local Sidereal Time
21:04:04
Azimuth
Unknown
Elevation
Unknown
Doppler factor
Unknown
Orbital elements
Apogee altitude
360.987 km
Perigee altitude
358.796 km
Semi-major axis
6,738.029 km
Eccentricity
0.00016
Inclination
53.1585°
RAAN
255.7704°
Arg. of periapsis
79.3598°
True anomaly
280.74199°
Mean anomaly
280.7603°
Eccentric anomaly
280.75115°
Mean motion
3.92413 °/min
Orbital period
91.74 mins
BSTAR
0.00092753
Loading maneuver chart data...
Computing Atmospheric mass density...
Loading historical data...
Loading historical data...
Loading historical data...
Loading historical data...
Loading historical data...
Loading historical data...
Loading historical data...

Documentation

Showing up to 5 results
|